SCP
0 0 1 1 1 1 1 1 1 3 5 6 5 5 6 7 9 13 15 16 21 26 28 27 25 19 14 11 11 13 14 12 11 11 10 8 7 7 7 7 6 6 6 6
0 0 1 1 1 2 1 1 2 4 6 5 5 5 6 8 11 15 14 15 21 26 28 28 23 17 12 10 12 14 14 12 12 13 12 10 8 7 8 7 7 7 7 7
0 0 1 1 1 2 2 2 3 5 6 5 5 5 7 10 15 18 15 15 19 23 25 23 19 14 12 11 11 13 12 12 12 15 15 12 9 9 9 9 8 8 9 9
0 1 1 1 1 1 2 3 4 5 5 5 5 6 8 12 16 18 16 14 15 17 18 16 14 12 12 11 11 11 10 11 13 16 17 16 12 10 10 10 10 10 11 12
0 1 1 1 1 1 2 2 3 4 5 7 9 9 9 11 13 14 14 13 13 13 13 12 11 11 11 11 11 10 11 11 13 16 19 19 16 14 13 13 12 11 11 12
1 1 1 1 1 1 1 2 3 3 7 14 18 14 10 9 10 11 12 12 12 12 11 11 11 11 12 12 11 11 11 12 13 16 19 20 18 17 17 16 14 13 12 12
1 1 1 1 1 1 2 2 3 4 10 22 26 20 14 11 11 11 11 12 11 11 10 10 11 11 11 12 12 12 12 12 13 15 16 17 17 18 18 18 17 16 16 15
1 1 2 2 2 2 3 4 4 4 14 26 28 24 20 15 12 10 11 12 11 11 10 11 11 12 12 12 13 14 13 12 11 12 12 13 15 16 17 17 18 19 19 17
2 2 3 3 4 4 4 5 5 6 15 25 26 23 20 15 11 10 12 13 12 12 12 13 14 14 14 14 13 13 12 10 9 9 10 10 12 14 13 14 16 20 20 18
2 3 3 4 4 4 5 6 7 10 15 20 20 16 13 10 9 11 14 15 14 14 15 16 16 15 14 14 14 13 12 11 11 10 10 10 10 9 8 9 12 16 19 18
4 5 4 4 3 4 5 6 9 12 14 14 13 10 7 7 8 12 16 17 16 16 16 15 13 13 13 14 14 15 15 14 13 12 10 9 8 6 6 6 8 11 14 15
5 6 5 4 4 4 5 5 7 10 12 12 11 8 7 7 7 12 17 18 16 15 12 9 8 9 11 12 14 17 18 16 14 12 10 8 7 5 5 5 4 5 7 8
5 6 6 5 4 4 4 4 5 7 11 13 11 9 7 7 8 12 16 16 13 10 7 5 5 7 8 9 12 15 15 14 11 10 9 7 6 5 5 3 3 3 3 3
6 6 6 5 5 5 4 4 5 8 12 13 11 9 8 7 9 12 14 12 9 7 6 6 5 6 6 7 7 8 8 8 7 7 6 6 6 7 7 6 5 4 3 2
6 5 5 5 6 6 5 4 5 8 12 12 11 9 8 7 8 10 9 8 7 7 8 7 7 6 6 6 6 6 6 6 7 8 9 9 10 11 10 9 8 6 4 2
4 4 4 5 6 6 5 4 5 9 11 11 10 8 7 6 6 6 6 6 7 7 7 8 8 7 7 6 6 7 7 7 9 11 12 13 13 12 10 8 6 5 3 2
3 3 4 5 5 5 4 5 7 9 10 10 9 7 6 4 4 4 4 5 5 5 5 6 6 6 6 5 5 6 6 6 6 8 9 9 9 8 6 4 3 2 1 1
2 2 3 4 4 4 5 7 9 10 9 8 7 5 4 3 3 2 2 2 3 3 3 3 4 4 4 3 3 4 4 3 3 3 3 3 3 3 3 2 1 1 0 0
2 2 2 2 3 5 8 10 11 11 9 7 5 4 3 2 2 2 2 2 2 2 2 2 2 2 2 2 2 2 3 3 2 2 2 2 2 3 2 2 1 1 0 0
1 1 2 2 4 7 11 13 12 11 9 6 4 3 2 2 2 2 1 1 1 1 1 1 1 1 1 1 1 1 2 2 2 2 3 2 2 2 1 1 1 0 0 0
1 1 2 3 7 12 14 14 12 9 7 5 4 3 2 2 2 1 1 1 1 1 1 1 1 1 1 1 1 1 1 2 2 2 2 2 2 1 1 1 0 0 0 0
1 2 3 6 12 16 15 12 9 7 5 4 3 3 3 2 1 1 1 1 1 0 0 0 0 0 1 1 1 1 1 1 2 2 2 2 2 1 1 1 1 1 1 1
2 4 6 10 14 14 11 9 6 5 3 3 3 3 3 2 1 1 1 1 0 0 0 0 0 0 0 0 1 1 1 1 1 1 1 1 1 1 1 1 2 2 2 2
4 6 8 9 10 8 6 5 4 3 2 2 3 3 3 2 1 1 1 0 0 0 0 0 0 0 0 0 0 1 1 1 1 1 1 1 2 2 2 2 3 3 3 3
5 5 6 6 5 4 3 3 2 2 2 2 2 3 2 2 1 1 1 1 0 0 0 0 0 0 0 0 0 1 1 1 1 1 1 2 2 3 3 3 4 3 2 2
5 5 4 4 3 2 2 1 1 1 2 2 2 2 2 2 1 1 1 1 0 0 0 0 0 0 0 0 0 1 1 1 1 1 2 2 3 3 3 3 3 3 2 1
5 5 4 4 2 1 1 1 1 1 2 2 2 2 2 1 1 1 1 0 0 0 0 0 0 0 0 0 0 1 1 1 1 2 2 3 3 3 3 3 2 2 1 1
Wind_Speed
12 13 13 12 12 12 12 12 11 6 4 3 2 1 3 4 6 6 5 5 5 5 5 5 6 5 5 4 4 5 6 6 7 6 5 5 5 4 4 4 4 3 3 2
12 13 13 13 12 11 11 11 10 6 2 2 3 3 3 5 5 5 4 4 4 4 5 4 5 5 5 4 4 4 4 4 5 6 5 5 4 4 4 4 3 3 3 3
10 11 12 12 11 10 8 8 6 3 1 3 2 1 3 4 5 4 3 5 4 3 3 3 4 4 4 5 4 4 4 3 3 4 5 4 4 4 4 4 4 3 3 3
9 10 13 7 6 8 6 5 2 1 1 2 2 1 3 5 4 4 3 4 4 3 2 2 3 3 3 4 4 5 4 3 3 3 4 4 4 4 4 4 4 4 4 4
8 11 10 7 5 7 5 3 3 1 2 1 1 1 3 5 4 4 3 3 3 3 2 2 2 2 3 3 4 4 4 4 4 4 4 4 4 4 4 3 3 3 3 3
9 11 10 5 5 5 5 4 4 2 2 2 2 1 1 4 4 4 4 3 3 2 2 2 2 2 2 2 3 3 3 3 4 3 3 4 4 3 3 3 3 3 3 3
12 11 5 5 5 4 5 2 4 3 3 1 2 2 3 4 4 4 4 3 3 3 3 3 3 3 2 1 1 1 2 2 3 3 3 3 3 2 2 2 3 3 3 3
8 10 4 6 4 2 3 4 4 5 4 4 5 6 5 4 4 4 4 3 3 4 4 3 3 3 2 2 1 2 2 2 1 1 1 2 2 2 2 3 3 3 3 3
2 2 3 6 5 4 4 5 4 5 4 5 5 5 4 4 3 3 3 3 4 4 3 3 3 3 2 2 2 2 2 2 2 1 1 0 1 2 2 2 2 2 2 2
2 1 3 3 3 4 5 4 4 4 3 4 4 4 3 3 4 4 5 4 4 3 4 4 3 3 2 2 1 1 1 1 1 1 1 1 1 1 0 0 1 1 1 0
1 1 2 3 5 5 4 3 4 3 3 3 4 3 4 4 4 4 4 4 4 4 4 4 4 3 2 2 1 1 0 1 1 1 1 1 1 0 0 1 1 1 1 0
0 1 1 0 2 2 2 2 2 3 3 3 3 3 4 4 4 4 4 3 4 4 3 3 3 4 3 3 2 1 0 1 1 1 1 1 1 2 3 2 3 2 2 2
1 2 2 1 2 2 2 2 3 3 3 3 3 3 4 4 3 4 4 3 3 3 3 3 3 3 3 3 3 2 2 1 1 1 1 0 0 1 1 1 2 1 1 1
3 2 1 2 3 2 2 3 3 3 3 2 3 3 4 4 4 5 4 3 3 3 3 3 3 3 3 3 2 2 2 1 1 1 1 1 1 1 0 1 1 1 0 1
1 0 0 1 1 1 2 2 2 3 3 3 4 4 4 4 5 5 4 3 4 3 3 3 3 3 3 2 2 2 2 2 1 1 0 1 1 1 1 1 1 2 2 1
0 0 0 0 1 1 1 1 1 2 3 4 4 4 5 5 5 5 5 4 3 3 3 3 3 3 3 2 2 1 1 1 1 2 1 1 1 2 2 2 2 2 2 2
0 0 1 1 0 0 0 1 2 2 3 4 6 6 6 5 5 4 4 4 4 4 3 3 3 3 3 3 3 3 2 0 0 1 2 2 2 2 2 2 2 2 2 3
2 1 1 1 0 1 1 1 2 4 5 5 6 5 5 4 4 3 3 3 4 4 3 3 3 3 3 4 3 3 2 2 1 1 2 2 2 1 1 2 2 2 2 2
1 1 1 1 1 1 2 2 3 5 5 5 5 5 4 3 3 3 3 3 3 2 2 3 3 2 3 3 4 2 2 2 1 1 1 1 1 1 2 2 2 2 2 2
2 2 1 1 2 3 3 3 4 4 5 6 5 5 4 4 3 3 2 2 2 3 3 3 2 3 3 4 4 3 3 3 2 2 2 2 2 2 2 2 3 3 3 3
2 2 2 3 3 4 5 4 4 5 5 5 5 4 4 4 3 3 2 2 3 3 3 3 1 2 3 4 3 4 3 3 3 3 3 3 3 3 3 3 3 3 3 3
1 2 3 4 4 5 4 4 5 5 5 5 5 5 4 4 4 3 3 2 3 3 2 1 2 4 4 4 3 3 3 3 3 3 3 3 3 3 3 3 3 3 3 3
2 3 4 4 5 5 4 4 4 4 5 4 4 4 4 3 2 2 2 2 3 3 2 2 4 4 4 3 3 2 3 3 3 3 3 3 3 3 3 3 3 3 3 3
3 4 4 5 5 5 4 4 4 4 4 4 4 3 3 3 2 2 3 4 4 3 2 3 2 2 2 1 2 3 3 3 3 3 3 3 3 3 3 3 3 3 3 4
4 4 5 5 4 4 4 4 4 3 3 3 3 3 2 2 2 2 3 4 4 3 1 2 2 1 1 2 2 2 3 3 4 4 3 3 3 3 3 4 4 4 4 3
4 3 4 3 3 2 3 3 3 3 3 3 2 2 3 2 3 2 2 3 3 1 0 1 1 2 1 1 2 2 2 2 2 2 4 4 4 4 4 4 5 4 4 4
4 4 3 3 3 3 3 2 3 3 2 2 2 3 3 2 2 2 2 1 1 1 1 1 1 1 1 2 2 2 3 3 3 3 3 4 4 4 4 4 4 4 4 4
Wind_Direction
269 272 269 264 254 253 259 266 268 259 209 188 134 100 114 116 118 117 119 120 116 127 129 137 144 146 150 154 153 160 161 165 167 168 170 176 178 178 186 191 198 194 197 203
261 265 267 267 268 262 261 263 263 261 241 127 100 95 107 120 123 125 125 114 104 105 127 139 145 150 149 146 144 145 153 162 160 166 173 182 182 180 184 192 200 197 200 204
259 261 266 260 261 257 256 269 271 262 158 120 76 112 128 118 123 128 135 125 119 119 116 137 149 145 145 147 147 151 158 163 161 163 170 178 189 184 193 196 199 203 206 208
264 261 256 265 284 282 278 285 300 293 66 88 115 178 112 103 105 107 109 120 124 126 132 150 148 148 147 159 157 160 163 168 166 170 173 175 186 192 199 199 202 204 212 216
259 254 249 250 259 264 265 283 328 16 77 63 60 72 84 76 85 93 95 92 103 125 141 133 148 149 151 166 162 164 168 172 175 177 178 181 191 199 197 197 203 206 207 211
254 261 260 255 258 275 274 246 349 21 93 118 136 196 102 74 77 89 81 90 89 92 94 105 109 121 149 165 166 172 176 176 169 177 186 192 194 197 202 202 213 220 219 211
251 258 258 297 299 275 249 274 334 8 45 63 73 76 91 85 73 79 80 70 88 94 81 65 71 87 97 124 144 148 150 160 160 179 200 190 187 187 206 212 216 219 222 217
251 254 259 350 342 8 32 22 19 36 52 55 72 87 98 92 81 81 86 83 84 84 84 77 75 83 85 70 62 84 102 116 128 155 227 184 177 198 208 221 219 218 218 225
276 284 19 26 44 51 40 27 27 52 58 70 82 89 92 89 88 95 92 84 83 85 83 77 83 85 81 61 56 87 102 98 92 78 81 77 190 204 210 216 223 224 209 215
224 143 46 31 44 48 44 35 31 55 68 84 91 85 80 89 86 88 90 89 83 76 78 74 71 74 79 76 70 93 114 121 119 119 175 165 147 221 230 304 272 252 232 223
170 90 51 23 37 38 27 28 51 75 96 98 103 97 88 92 82 86 90 89 85 77 75 73 67 62 67 73 80 89 142 171 182 215 222 171 135 51 65 27 36 295 275 83
327 16 340 53 46 43 13 24 72 88 93 96 103 110 104 100 95 95 92 87 88 82 75 66 59 46 42 45 45 40 246 259 265 243 207 190 141 116 64 83 71 43 58 60
17 24 16 338 12 20 43 53 61 81 93 98 97 108 107 105 104 104 95 91 93 95 88 72 61 53 34 32 33 19 355 342 322 343 350 13 94 166 169 85 89 64 34 20
59 69 10 16 19 20 48 67 72 79 82 93 104 105 107 106 100 102 99 92 86 85 85 76 64 57 48 44 29 5 335 1 349 353 12 356 327 289 178 146 130 163 190 246
11 92 138 15 356 47 66 95 108 113 112 104 108 106 109 111 108 101 95 91 86 78 69 64 53 43 23 32 18 339 324 344 357 341 3 17 347 347 14 43 83 80 80 52
298 267 160 192 316 90 102 108 112 118 113 109 105 105 107 100 95 94 91 90 87 81 67 58 47 24 4 359 346 314 300 6 326 317 340 56 33 3 9 40 57 59 49 47
256 266 216 206 304 34 56 138 149 139 122 117 113 109 108 104 96 93 93 90 78 72 65 54 37 22 7 357 333 319 318 112 205 318 2 22 33 30 35 38 37 37 53 69
240 260 247 244 234 117 86 91 117 121 119 115 113 111 109 108 108 103 102 96 87 73 58 47 34 18 4 354 338 332 332 0 23 14 26 23 18 19 28 39 33 31 45 73
187 194 192 175 159 134 126 117 106 110 113 114 115 114 109 107 103 100 96 93 91 87 64 52 27 348 348 3 346 316 317 337 10 29 22 59 10 18 30 25 22 23 23 27
167 169 161 146 127 122 115 105 108 110 115 111 110 113 113 108 110 111 103 86 63 53 63 53 29 354 353 14 352 332 343 345 357 18 22 24 29 27 25 21 24 21 19 20
160 154 146 129 118 118 117 116 115 114 112 114 117 117 113 110 109 104 108 99 72 57 65 66 20 355 352 349 330 332 348 357 6 15 21 19 26 25 24 25 23 22 24 19
125 123 121 117 115 111 112 115 116 116 115 116 120 121 120 118 114 104 80 64 75 66 53 34 28 24 356 341 344 352 1 3 6 14 22 25 27 23 22 21 18 21 26 21
117 115 109 105 105 104 106 113 115 113 116 122 126 127 131 126 127 124 106 86 87 86 57 32 32 23 360 348 344 354 8 8 9 14 25 38 31 25 21 23 25 20 18 14
121 120 118 114 114 117 114 109 106 114 125 134 135 137 139 133 122 116 109 105 102 113 68 65 53 4 339 339 343 348 0 12 16 20 26 25 21 25 28 28 23 18 15 8
121 127 125 122 122 118 119 120 118 126 129 121 126 132 137 131 117 108 110 115 132 151 136 134 198 250 289 344 341 354 9 16 15 7 12 20 24 24 27 27 22 13 7 1
125 129 115 115 116 125 130 134 144 148 135 133 136 123 119 115 109 112 116 119 116 136 113 128 162 207 249 312 347 0 14 40 32 25 25 20 21 22 27 22 8 4 5 6
122 118 116 126 125 119 119 125 126 127 123 117 114 106 100 93 92 88 74 65 92 87 44 31 21 5 5 10 11 16 21 22 30 34 26 20 19 21 19 16 11 12 8 8